Location: Newark
(38.1089°N, 103.8675°W)
Time: 02:38:22
(UTC+00:00)

Envisat - Pass Details

Date: 23 December 2019
Orbit: 764 x 766 km, 98.1° (Epoch: 23 January)

Event Time Altitude Azimuth Distance (km) Brightness Sun altitude
Rises 13:19:11 0° 17° (NNE) 3,238 6.2 -9.7°
Reaches altitude 10° 13:21:33 10° 23° (NNE) 2,308 5.5 -9.2°
Maximum altitude 13:26:31 53° 100° (E) 932 3.9 -8.3°
Drops below altitude 10° 13:31:27 10° 177° (S) 2,292 5.9 -7.4°
Sets 13:33:48 0° 182° (S) 3,213 6.5 -7.0°
